{"data":{"norad_id":49750,"intl_designator":"2021-115AC","name":"STARLINK-3236","alt_names":[],"object_type":"PAYLOAD","status":"ACTIVE","operator":null,"country":"US","launch_date":"2021-12-02","launch_site_code":"AFETR","launch_vehicle":null,"mission":null,"orbit_class":"UNKNOWN","rcs_meters":null,"size_class":null,"mass_kg":null,"dimensions":null,"purposes":["comms"],"wikipedia_slug":null,"has_3d_model":false,"image_url":null,"decayed_at":null,"tle_current":{"epoch":"2026-09-20T04:54:11.555424Z","epoch_age_seconds":70872,"freshness":"FRESH","line1":"1 49750U 21115AC  26263.20430041  .00000810  00000+0  37882-4 0  9998","line2":"2 49750  53.1607 341.2014 0001278  83.8833 276.2314 15.31697882265092","mean_motion":15.31697882,"eccentricity":0.0001278,"inclination_deg":53.1607,"raan_deg":341.2014,"arg_perigee_deg":83.8833,"mean_anomaly_deg":276.2314,"bstar":3.7882e-5,"rev_number":26509,"period_min":94.013317960572,"perigee_km":469.87102159384,"apogee_km":471.62159616759,"semimajor_km":6848.8833088807,"source":"CELESTRAK","updated_at":"2026-09-20T09:00:39.408381Z"}}}